Location: Churchill Northern Studies Centre
(58.7378°N, 93.8201°W)
Time: 15:30:33
(UTC-05:00)

Vanguard 2 - All Passes

Search period start: 18 October 2017 00:00
Search period end: 28 October 2017 00:00
Orbit: 554 x 2939 km, 32.9° (Epoch: 17 October)

Date Brightness Start Highest point End Pass type
(mag) Time Alt. Az. Time Alt. Az. Time Alt. Az.
19 Oct - 09:52:33 10° S 09:54:26 10° S 09:56:12 10° SSE daylight
19 Oct - 12:00:11 10° SSW 12:01:46 10° S 12:03:14 10° S daylight
20 Oct - 10:07:38 10° SSW 10:12:00 13° S 10:15:45 10° SSE daylight
20 Oct - 12:17:37 10° SSW 12:19:13 10° SSW 12:20:44 10° S daylight
21 Oct - 08:19:43 10° SSE 08:21:46 10° SSE 08:23:42 10° SSE daylight
21 Oct - 10:23:59 10° SSW 10:29:32 14° S 10:34:07 10° SSE daylight
22 Oct - 08:33:38 10° S 08:39:15 13° SSE 08:44:08 10° SE daylight
22 Oct - 10:40:52 10° SW 10:47:02 15° S 10:52:03 10° SSE daylight
23 Oct - 08:49:23 10° SSW 08:56:46 16° S 09:02:53 10° SE daylight
23 Oct - 10:58:08 10° SW 11:04:30 15° SSW 11:09:40 10° SSE daylight
24 Oct - 07:01:26 10° S 07:06:11 12° SSE 07:10:31 10° SE visible
24 Oct - 09:05:48 10° SSW 09:14:16 18° S 09:21:07 10° SE daylight
24 Oct - 11:15:42 10° SW 11:21:55 15° SSW 11:27:00 10° SSE daylight
25 Oct - 07:15:59 10° S 07:23:36 15° SSE 07:30:14 10° SE visible
25 Oct - 09:22:37 10° SW 09:31:46 19° S 09:39:02 10° SE daylight
25 Oct - 11:33:34 10° SW 11:39:16 14° SSW 11:44:01 10° S daylight
26 Oct - 07:31:43 10° SSW 07:41:02 18° SSE 07:48:55 10° SE visible
26 Oct - 09:39:46 10° SW 09:49:13 20° S 09:56:43 10° SE daylight
26 Oct - 11:51:53 10° SW 11:56:33 13° SSW 12:00:35 10° S daylight
27 Oct - 05:44:50 10° SSE 05:50:14 12° SSE 05:55:18 10° SE visible
27 Oct - 07:48:03 10° SSW 07:58:28 20° S 08:07:09 10° SE daylight
27 Oct - 09:57:09 10° SW 10:06:39 20° SSW 10:14:10 10° SSE daylight
27 Oct - 12:11:11 10° SW 12:13:45 11° SW 12:16:08 10° SSW daylight
